Temperature
11 12 12 12 12 12 11 11 11 11 11 11 11 11 11 12 12 12 12 12 12 12 12 12 12 12 12 11 11 12 11 11 11 11 11 11 11 10 10 10 10 10 10
11 11 11 11 11 11 11 11 11 11 11 11 11 11 11 11 11 12 11 11 11 11 11 12 11 11 11 11 11 11 11 11 11 11 10 10 10 10 10 10 10 10 9
10 11 11 11 11 11 11 10 10 11 11 11 11 11 11 11 11 11 11 11 11 11 11 11 11 11 11 11 11 11 11 11 11 10 10 10 10 10 10 10 9 9 9
10 10 10 10 10 10 10 10 10 10 10 10 10 10 11 11 11 11 11 11 11 11 11 11 11 11 11 11 11 11 10 10 10 10 10 10 10 9 9 9 9 9 9
9 10 10 10 10 10 10 10 10 10 10 10 10 10 10 10 10 10 10 10 10 11 11 11 11 11 11 10 10 10 10 10 10 10 10 9 9 9 9 9 9 9 9
9 9 9 9 9 9 9 9 9 9 9 10 10 10 10 10 10 10 10 10 10 10 10 10 10 10 10 10 10 10 10 10 9 9 9 9 9 9 9 9 9 9 8
8 9 9 9 9 9 9 9 9 9 9 9 9 9 9 9 9 9 9 10 10 10 10 10 10 10 10 10 10 10 10 9 9 9 9 9 9 8 8 8 8 8 8
8 8 8 8 8 8 8 8 8 8 8 9 9 8 8 9 9 9 9 9 9 9 9 10 10 10 10 10 10 10 9 9 9 9 8 8 8 8 8 8 8 8 8
7 7 8 8 8 8 8 8 8 8 8 8 8 8 8 8 8 9 9 9 9 9 9 9 9 9 9 9 9 9 9 9 9 8 8 8 8 8 8 8 8 8 8
6 7 7 7 7 7 8 8 8 8 8 8 8 8 8 8 8 8 8 8 8 9 9 9 9 9 9 9 9 9 9 9 8 8 8 8 8 7 7 7 7 7 7
6 6 6 7 7 7 7 7 7 7 7 7 7 8 8 8 8 8 8 8 8 8 8 8 9 9 9 9 9 9 8 8 8 8 8 8 7 7 7 7 7 7 7
5 6 6 6 6 7 7 7 7 7 7 7 7 7 7 8 8 8 8 8 8 8 8 8 8 8 8 8 8 8 8 8 8 8 8 7 7 7 7 7 7 7 7
5 5 5 6 6 6 6 6 6 6 6 6 7 7 7 7 8 8 8 8 7 7 8 8 8 8 8 8 8 8 8 8 8 8 7 7 7 7 7 7 6 6 6
4 5 5 5 5 5 6 6 6 6 6 6 6 6 6 7 7 7 7 7 7 7 7 7 8 8 8 8 8 8 8 8 7 7 7 7 7 7 7 7 6 6 6
4 4 4 4 5 5 5 5 5 6 6 6 6 6 6 6 6 7 7 7 7 7 6 7 7 7 7 7 7 7 7 7 7 7 7 7 7 7 6 6 6 6 6
3 3 4 4 4 4 4 5 5 5 5 5 5 5 5 6 6 6 6 7 7 7 7 7 7 7 7 7 7 7 7 7 7 7 7 7 6 6 6 6 6 6 6
2 3 3 3 4 4 4 4 4 5 5 5 5 5 5 5 5 6 6 6 6 6 6 7 7 7 6 6 6 6 6 6 6 6 6 6 6 6 6 6 6 5 5
2 2 2 3 3 3 3 4 4 4 4 4 4 4 4 5 5 5 5 6 6 6 6 6 6 6 6 6 6 6 6 6 6 6 6 6 6 6 6 5 5 5 5
1 1 2 2 2 3 3 3 3 3 3 4 4 4 4 4 4 5 5 5 5 5 6 6 6 6 6 6 6 5 5 5 5 5 5 5 5 5 5 5 5 5 5
0 1 1 1 2 2 2 2 2 3 3 3 3 4 4 4 4 4 5 5 5 5 5 5 5 5 5 5 5 5 5 5 5 5 5 5 5 5 5 5 5 4 4
-0 -0 0 1 1 1 2 2 2 2 2 2 3 3 3 3 4 4 4 4 4 4 4 5 5 5 5 5 5 5 5 5 4 4 4 4 4 4 4 4 4 4 4
-1 -1 -0 -0 0 1 1 1 1 1 1 2 2 3 3 3 3 3 3 4 4 4 4 4 4 4 4 4 4 4 4 4 4 4 4 4 4 4 4 4 4 4 4
-2 -1 -1 -1 -0 -0 0 -0 0 0 0 1 1 2 2 2 2 3 3 3 3 3 3 4 4 4 4 4 4 4 4 4 4 4 4 3 3 3 3 3 3 3 3
-3 -2 -2 -2 -1 -1 -1 -1 -1 -0 -0 0 1 1 1 2 2 2 2 2 2 3 3 3 3 3 3 3 3 3 3 3 3 3 3 3 3 3 3 3 3 3 2
-3 -3 -3 -2 -2 -1 -1 -1 -1 -1 -1 -0 0 0 1 1 1 1 1 2 2 2 2 2 2 2 2 3 3 2 2 2 2 2 2 2 2 2 2 2 2 2 2
-4 -4 -3 -3 -3 -2 -2 -2 -2 -2 -2 -1 -1 -0 0 0 1 1 1 1 1 2 2 2 2 2 2 2 2 2 2 2 2 2 2 2 2 2 1 2 2 1 1
Wind_Speed
2 2 3 3 3 4 4 4 4 4 4 6 7 7 7 7 8 8 7 9 10 9 10 11 11 12 12 12 12 12 11 11 12 12 11 11 12 12 12 12 12 12 12
2 2 2 2 3 4 4 4 4 3 3 5 5 6 6 7 7 8 8 8 9 9 9 10 11 12 12 12 12 11 11 11 11 11 11 10 11 11 11 11 11 11 11
2 2 2 2 3 4 5 4 4 4 3 4 4 5 5 6 6 7 8 7 8 8 8 8 9 10 11 11 11 11 10 10 11 10 10 10 10 10 11 11 11 11 10
3 3 2 2 3 4 4 3 3 3 3 3 3 2 4 5 5 6 7 7 7 7 7 8 8 9 9 10 10 10 10 10 10 10 10 10 9 9 10 9 9 9 9
2 3 2 2 4 4 3 3 3 3 4 3 3 2 2 3 4 5 6 7 7 7 7 7 8 8 8 9 9 10 10 10 10 10 10 9 9 8 8 8 8 8 7
1 3 2 3 3 3 3 3 3 3 3 4 4 3 2 2 3 4 5 6 6 8 8 7 7 7 7 8 8 9 9 9 9 9 9 8 8 7 7 7 6 6 6
1 2 2 2 3 3 4 4 3 4 3 3 4 3 2 2 2 2 3 4 5 7 7 7 7 6 6 6 7 8 9 9 9 9 8 7 7 6 6 6 5 5 4
1 1 2 2 2 3 4 4 4 3 2 3 3 4 2 1 1 1 1 3 3 5 5 6 7 6 6 5 6 7 7 8 9 9 8 7 7 6 5 5 4 4 4
1 1 1 1 2 3 4 5 5 4 4 2 2 3 3 3 1 0 1 1 2 3 3 5 6 6 6 6 6 6 7 8 9 9 8 8 7 6 5 4 4 4 3
2 1 1 1 1 2 4 5 4 3 5 4 2 1 1 3 3 2 1 1 2 2 3 3 4 5 6 6 6 6 7 7 9 9 9 8 7 6 6 5 4 3 3
3 1 1 1 0 1 3 4 4 4 4 4 3 2 1 1 1 2 3 2 1 2 2 3 4 5 6 6 6 7 7 8 8 8 8 8 7 7 6 5 4 3 4
2 2 1 0 0 1 2 4 4 4 3 3 3 2 3 3 3 2 3 3 3 2 2 3 4 5 6 7 7 8 8 8 8 8 8 8 7 7 7 6 5 4 4
2 2 2 2 1 1 2 3 3 4 4 4 4 3 3 3 2 2 3 2 2 1 2 2 4 6 7 8 8 9 10 9 9 9 9 8 8 7 8 7 6 5 5
3 3 2 2 2 2 2 2 3 4 3 4 4 3 3 3 3 3 3 3 2 2 2 3 2 5 7 8 8 10 9 10 10 10 10 9 8 8 8 8 7 7 6
3 2 2 2 2 2 2 2 3 4 4 4 4 3 3 3 3 3 3 4 4 4 5 4 3 4 7 8 8 9 9 10 11 11 11 10 9 9 9 9 8 8 7
3 2 2 2 2 2 1 1 2 3 3 3 3 3 3 2 2 2 3 3 3 4 4 4 4 3 5 6 8 8 8 9 10 11 12 11 11 10 9 9 9 9 8
2 3 3 2 2 2 2 2 2 2 3 3 3 4 4 3 3 3 3 3 3 3 4 3 2 2 4 4 5 6 7 7 8 10 12 11 11 11 10 10 9 9 9
3 3 2 2 2 3 3 3 4 3 4 4 4 4 4 3 4 4 4 4 4 4 4 4 3 3 4 5 5 4 5 6 7 8 9 10 10 10 11 11 10 10 10
3 3 2 3 3 3 3 3 4 5 5 5 5 5 4 4 4 4 4 4 4 3 3 4 3 2 2 3 3 3 3 3 5 6 8 9 9 9 10 11 11 11 10
3 3 3 3 3 4 4 4 4 5 5 5 5 5 5 6 6 5 5 5 4 3 3 4 3 3 2 2 3 3 3 3 3 4 5 7 8 9 9 10 10 10 11
4 3 4 4 4 4 4 5 5 5 5 5 5 5 5 6 7 6 5 5 5 4 4 4 3 3 3 3 4 4 4 3 3 3 2 4 5 5 7 9 10 11 11
4 3 4 4 4 5 7 7 6 5 5 6 6 5 5 6 7 8 8 7 8 7 6 5 4 5 5 5 4 4 4 3 4 3 3 4 4 4 5 8 10 11 11
4 4 4 4 5 6 8 8 8 5 5 6 6 5 5 5 6 5 6 7 8 9 9 8 7 7 7 7 6 6 5 5 5 3 3 4 3 4 5 8 10 11 11
4 4 5 4 5 6 8 9 8 5 5 5 6 6 6 6 6 6 5 6 7 7 8 7 8 8 7 7 8 7 6 3 2 2 4 4 3 4 4 6 10 11 11
5 5 5 5 5 6 8 9 8 4 4 5 6 6 7 7 9 8 7 7 7 6 8 9 8 8 8 9 8 4 4 4 3 3 3 3 2 2 2 3 7 9 10
6 5 6 5 5 6 8 9 8 4 5 5 5 6 8 9 9 9 7 7 8 7 5 5 5 5 6 8 10 9 7 6 3 3 4 3 2 2 2 2 3 6 7
Wind_Direction
103 123 125 128 133 137 133 131 122 111 109 111 113 114 110 113 117 113 112 112 119 125 132 135 135 132 129 125 121 118 115 113 109 104 102 98 93 91 88 84 81 79 75
119 127 133 129 142 150 147 142 141 129 122 117 112 113 120 116 122 121 118 116 114 118 123 130 134 133 132 129 125 121 119 117 114 110 106 102 97 94 92 88 85 82 77
122 123 142 142 152 154 144 133 128 123 118 115 114 117 119 117 122 129 128 125 122 120 121 124 135 139 139 134 131 127 124 120 117 112 109 106 103 99 95 91 86 82 78
133 124 141 156 158 151 143 140 139 132 128 123 121 124 117 122 121 131 132 133 130 127 128 126 128 137 142 141 138 135 131 127 123 118 114 112 107 104 100 95 89 85 79
150 138 150 153 154 146 141 152 151 148 139 127 122 115 114 123 127 131 131 138 139 136 133 132 130 132 139 145 145 142 137 135 131 126 123 119 115 109 107 101 95 89 83
144 138 141 143 150 150 150 148 150 145 145 137 120 98 86 113 121 131 141 139 141 142 138 135 132 134 136 144 149 150 145 143 140 138 135 131 128 121 119 114 106 98 88
53 146 142 152 153 166 165 153 147 143 139 137 118 103 60 66 118 130 133 135 137 146 144 143 139 136 140 149 154 157 155 152 150 148 144 143 141 135 128 128 124 113 102
37 95 149 166 166 164 160 156 148 150 161 157 143 142 139 108 48 132 139 151 148 136 140 152 150 147 144 141 152 159 164 166 165 161 159 157 152 150 147 144 144 137 126
10 93 108 149 166 171 175 172 166 156 171 191 170 153 159 189 175 219 178 159 154 150 151 149 156 159 158 152 156 167 174 178 178 175 173 169 167 167 166 163 162 157 147
2 79 96 94 160 180 182 180 175 167 169 182 197 194 169 150 161 173 211 206 175 172 166 157 162 169 168 165 169 174 179 185 191 188 187 180 176 177 179 176 175 176 171
2 26 91 111 57 197 183 177 175 171 178 184 187 181 144 112 140 161 187 206 202 199 179 174 175 176 181 181 183 186 189 190 189 190 189 186 188 188 189 189 194 194 185
342 356 347 327 300 323 198 181 178 181 191 195 193 186 181 176 181 170 182 197 205 218 207 189 189 188 188 191 196 197 197 197 194 194 196 195 197 199 200 200 203 201 200
310 288 326 309 288 295 232 186 181 190 196 200 202 205 206 205 182 181 173 187 202 212 203 208 205 198 197 198 202 201 202 206 207 205 204 204 204 203 202 204 207 208 211
266 280 303 300 304 282 252 200 194 193 194 202 212 211 210 213 192 186 178 174 181 200 210 222 210 205 203 203 206 202 206 208 210 212 210 208 206 204 203 206 210 214 217
287 282 291 293 307 285 249 210 201 204 201 207 208 215 215 217 204 200 184 177 179 197 214 214 207 206 205 205 207 205 210 212 211 213 215 213 211 211 207 206 208 212 216
292 274 272 281 296 300 261 215 208 209 202 212 213 214 221 219 203 202 193 196 199 199 215 206 211 213 197 203 208 205 210 211 213 214 215 213 212 212 206 207 208 211 211
278 258 260 266 272 283 264 224 218 213 212 214 215 214 218 210 205 207 198 197 202 198 217 234 220 195 191 198 207 210 210 208 215 216 214 213 212 212 209 209 208 206 208
274 264 260 255 263 280 272 241 229 218 213 217 217 216 223 218 216 213 203 203 206 202 200 217 219 198 203 201 199 204 212 213 215 214 212 215 214 212 212 211 210 210 211
280 281 261 250 254 259 263 251 239 225 221 221 219 218 220 217 228 225 209 206 210 210 197 197 209 207 210 195 192 204 208 215 220 215 213 219 220 218 214 213 212 213 216
289 270 266 256 256 260 259 250 250 234 228 228 228 227 221 219 224 223 214 210 202 199 191 187 194 199 211 196 182 200 216 223 228 214 221 225 227 224 219 217 215 215 217
299 285 274 271 267 258 254 241 242 233 227 228 232 233 236 230 231 228 222 208 196 197 198 199 199 204 206 196 206 204 215 223 231 213 226 230 223 222 224 224 222 220 219
299 284 272 268 271 267 269 260 257 232 226 226 229 232 239 237 233 233 231 220 210 205 206 210 214 212 212 211 212 213 208 212 235 210 208 236 214 225 228 225 227 223 221
295 285 273 270 267 273 274 264 262 254 231 228 229 229 239 246 243 233 232 227 225 223 216 213 216 218 209 207 203 211 217 217 229 206 203 231 216 232 233 232 229 221 219
291 288 282 276 269 274 282 273 263 259 241 236 234 229 230 234 239 231 228 229 229 228 222 217 217 220 219 207 207 213 217 226 266 214 193 224 220 235 247 236 225 219 221
298 289 282 275 270 274 279 276 270 252 243 243 241 238 234 233 239 234 230 229 232 238 236 232 230 228 226 217 205 193 195 209 242 230 201 204 219 243 250 239 227 226 226
296 293 289 276 270 271 278 274 268 248 241 245 246 240 241 240 239 232 229 226 230 233 222 225 229 230 222 215 206 201 200 209 222 228 202 190 201 190 241 246 235 230 228
Height
1533 1534 1536 1537 1539 1540 1542 1543 1545 1546 1548 1549 1551 1552 1553 1554 1556 1557 1558 1559 1559 1560 1561 1562 1562 1563 1563 1564 1564 1565 1565 1566 1566 1566 1566 1566 1566 1566 1566 1566 1566 1565 1565
1531 1532 1533 1535 1537 1538 1540 1542 1543 1545 1547 1548 1550 1551 1552 1554 1555 1556 1557 1558 1559 1560 1561 1562 1562 1563 1563 1564 1564 1565 1565 1566 1566 1566 1566 1567 1567 1567 1566 1566 1566 1566 1565
1529 1530 1531 1533 1534 1536 1538 1540 1542 1544 1545 1547 1548 1550 1551 1552 1554 1555 1556 1557 1558 1559 1560 1561 1562 1563 1563 1564 1564 1565 1565 1566 1566 1566 1566 1567 1567 1567 1567 1566 1566 1566 1566
1526 1527 1529 1531 1532 1534 1536 1538 1540 1541 1543 1545 1546 1548 1550 1551 1552 1554 1555 1556 1557 1558 1559 1560 1561 1562 1563 1563 1564 1564 1565 1565 1566 1566 1566 1566 1567 1567 1567 1567 1566 1566 1566
1523 1525 1526 1528 1530 1532 1533 1535 1538 1539 1541 1543 1545 1546 1548 1550 1551 1552 1554 1555 1556 1557 1558 1559 1560 1561 1562 1562 1563 1564 1564 1565 1565 1565 1566 1566 1566 1566 1566 1566 1566 1566 1566
1520 1522 1523 1526 1527 1529 1531 1533 1535 1537 1539 1541 1543 1544 1546 1548 1549 1551 1552 1553 1554 1556 1557 1558 1559 1560 1561 1561 1562 1563 1563 1564 1564 1565 1565 1565 1565 1566 1566 1566 1566 1565 1565
1517 1519 1520 1522 1524 1526 1527 1529 1532 1534 1536 1538 1540 1542 1544 1546 1547 1549 1550 1551 1552 1553 1555 1556 1557 1558 1559 1560 1561 1562 1562 1563 1563 1564 1564 1564 1564 1565 1565 1565 1565 1565 1564
1514 1516 1517 1518 1521 1523 1525 1527 1529 1531 1533 1535 1537 1539 1542 1545 1545 1546 1547 1549 1550 1551 1552 1554 1555 1556 1557 1558 1559 1560 1561 1562 1562 1563 1563 1563 1563 1564 1564 1564 1564 1564 1563
1511 1513 1514 1515 1517 1519 1521 1523 1525 1527 1529 1532 1534 1536 1538 1539 1541 1543 1544 1546 1547 1548 1550 1551 1552 1554 1555 1556 1557 1558 1559 1560 1560 1561 1561 1561 1562 1562 1562 1563 1562 1562 1562
1508 1509 1510 1512 1514 1516 1518 1520 1522 1524 1526 1528 1531 1533 1535 1536 1538 1539 1541 1543 1544 1545 1547 1548 1549 1551 1552 1553 1554 1555 1556 1557 1558 1559 1559 1559 1560 1560 1561 1561 1561 1561 1561
1504 1505 1507 1509 1510 1512 1514 1516 1518 1521 1523 1525 1527 1529 1531 1533 1534 1535 1536 1539 1540 1542 1543 1545 1546 1548 1549 1551 1552 1553 1554 1555 1556 1556 1557 1557 1558 1558 1559 1559 1559 1559 1559
1501 1502 1504 1505 1507 1508 1511 1512 1515 1517 1520 1522 1524 1525 1527 1529 1530 1532 1533 1535 1536 1538 1540 1541 1543 1544 1546 1547 1549 1550 1551 1552 1553 1554 1554 1555 1555 1556 1556 1557 1557 1557 1557
1497 1498 1499 1502 1503 1504 1507 1509 1511 1514 1516 1518 1520 1522 1524 1525 1527 1529 1530 1531 1533 1534 1536 1537 1539 1541 1542 1544 1545 1546 1548 1549 1550 1551 1551 1552 1552 1553 1554 1554 1554 1554 1554
1494 1495 1496 1498 1499 1501 1503 1505 1507 1509 1512 1514 1516 1518 1520 1522 1524 1525 1527 1528 1529 1530 1531 1533 1535 1536 1538 1540 1541 1543 1544 1545 1546 1547 1548 1549 1549 1550 1550 1551 1551 1551 1551
1491 1492 1493 1495 1496 1497 1499 1501 1503 1505 1507 1509 1511 1513 1515 1517 1519 1521 1523 1525 1526 1526 1526 1528 1530 1532 1534 1536 1537 1539 1540 1541 1542 1543 1544 1545 1545 1546 1547 1547 1548 1548 1548
1488 1488 1490 1491 1492 1494 1495 1497 1499 1501 1503 1505 1507 1509 1511 1513 1515 1516 1518 1520 1522 1523 1523 1523 1526 1527 1530 1531 1533 1534 1536 1537 1538 1539 1540 1541 1541 1542 1543 1543 1544 1544 1544
1484 1484 1486 1487 1489 1490 1491 1493 1494 1496 1498 1501 1503 1505 1506 1509 1510 1512 1514 1515 1517 1518 1519 1519 1522 1523 1525 1527 1528 1530 1531 1532 1533 1534 1535 1536 1537 1537 1538 1539 1539 1540 1540
1480 1481 1482 1483 1484 1485 1487 1488 1490 1492 1494 1496 1498 1500 1501 1504 1505 1507 1509 1510 1512 1513 1515 1515 1517 1518 1520 1522 1523 1525 1526 1528 1529 1529 1530 1531 1532 1532 1533 1534 1535 1535 1536
1476 1477 1478 1479 1480 1481 1482 1483 1485 1487 1489 1491 1493 1495 1497 1499 1500 1502 1504 1505 1507 1509 1510 1511 1512 1514 1515 1517 1519 1520 1521 1523 1524 1524 1525 1526 1527 1527 1528 1529 1530 1530 1531
1471 1472 1473 1474 1475 1476 1478 1479 1480 1482 1484 1486 1488 1490 1492 1494 1495 1497 1499 1500 1502 1504 1505 1506 1507 1509 1511 1512 1514 1515 1516 1517 1518 1519 1520 1521 1522 1522 1523 1524 1525 1525 1526
1467 1467 1468 1469 1471 1472 1473 1474 1476 1477 1479 1480 1482 1484 1486 1488 1490 1492 1494 1495 1497 1498 1500 1501 1502 1504 1505 1507 1508 1509 1510 1512 1513 1514 1515 1516 1516 1517 1517 1518 1519 1519 1520
1462 1463 1463 1464 1465 1466 1468 1469 1471 1472 1474 1475 1477 1479 1481 1483 1484 1486 1488 1490 1492 1493 1494 1496 1497 1498 1499 1501 1503 1504 1505 1506 1507 1509 1509 1510 1511 1511 1512 1513 1513 1514 1514
1458 1458 1458 1459 1460 1461 1463 1464 1466 1467 1468 1470 1471 1473 1475 1476 1479 1480 1482 1484 1486 1487 1490 1491 1491 1492 1494 1496 1498 1499 1500 1500 1501 1502 1504 1503 1505 1505 1506 1507 1507 1508 1508
1453 1453 1453 1454 1455 1456 1457 1459 1461 1462 1463 1464 1466 1468 1469 1471 1473 1475 1476 1477 1479 1481 1483 1485 1486 1488 1490 1492 1493 1494 1495 1496 1496 1497 1498 1498 1498 1499 1500 1501 1502 1502 1502
1449 1448 1449 1449 1450 1451 1453 1454 1456 1456 1457 1459 1460 1462 1464 1465 1467 1469 1471 1472 1473 1475 1477 1479 1480 1482 1484 1486 1487 1489 1489 1490 1489 1491 1492 1493 1493 1493 1494 1495 1496 1496 1496
1445 1444 1444 1445 1446 1446 1448 1449 1451 1451 1452 1453 1454 1456 1458 1459 1461 1463 1465 1466 1467 1468 1471 1472 1474 1476 1477 1479 1481 1482 1483 1484 1484 1485 1486 1487 1487 1488 1488 1488 1490 1490 1491